Wind_Speed
5 5 5 4 4 4 4 4 4 3 3 3 3 3 3 3 3 3 4 4 5 5 5 5 5 6 6 7 9 11 14 15 16 16 16 17 16 15 15 14 13 12 12 13 12 12 11 11 10 9 9 8 7 6 4 2 1 2 5 7 6 3 3 8 10 14 18 19 19 16 13 11 10 10 9 8 9 9 8 9 8 10 11 13 15 14 13 13
6 6 5 5 5 4 4 3 3 3 3 3 3 3 3 3 3 3 3 4 4 5 5 5 5 5 6 6 7 8 11 14 15 17 18 17 15 15 15 13 13 12 11 11 11 11 11 11 10 10 10 9 8 6 5 3 1 2 5 7 7 6 3 7 12 16 19 20 19 16 13 12 10 9 8 7 7 8 8 8 10 12 12 13 14 14 13 12
6 6 6 6 5 5 4 3 3 3 3 3 3 3 4 4 4 3 3 3 4 4 5 5 5 5 5 5 6 7 9 12 15 17 18 17 16 15 14 12 12 12 12 12 12 12 13 13 12 12 11 10 9 7 5 4 1 2 5 7 9 9 7 7 13 18 21 21 20 18 15 13 11 9 8 6 6 7 7 7 10 13 12 12 13 14 13 12
6 6 6 6 5 5 4 4 3 3 3 3 2 3 3 3 4 4 4 4 4 4 4 4 4 5 5 5 5 6 8 10 14 17 18 17 16 15 14 12 13 13 13 13 14 14 15 15 15 15 13 12 10 7 5 4 0 3 5 7 9 10 9 7 12 20 22 22 21 18 16 14 11 10 8 6 5 6 7 8 9 10 7 8 11 13 13 12
6 6 6 6 5 5 4 4 4 3 3 3 3 3 3 3 4 4 4 5 5 5 4 4 4 4 5 5 5 6 8 9 12 14 15 16 16 16 14 13 13 14 14 13 13 13 14 14 16 15 13 12 10 7 5 4 1 3 4 7 8 8 9 4 11 20 22 22 20 19 17 14 11 10 9 6 3 4 8 10 11 10 5 4 9 12 13 12
7 7 6 6 6 5 5 5 4 4 4 4 4 4 4 4 4 5 5 5 6 6 6 5 5 5 5 4 5 6 7 8 9 11 13 15 16 16 14 13 13 14 14 13 13 13 12 13 14 13 12 11 9 6 5 3 1 2 4 6 7 6 7 2 13 18 20 21 20 18 17 15 11 11 10 6 4 5 8 11 13 11 5 5 9 11 12 12
6 7 7 7 6 6 6 6 5 5 5 6 6 6 6 6 6 5 5 6 6 7 7 6 6 6 5 5 5 6 8 8 7 9 11 13 16 16 15 13 13 14 13 13 12 12 11 12 12 12 12 11 9 6 4 3 1 1 3 5 5 4 4 4 12 15 18 20 18 17 16 15 12 11 10 8 6 7 9 11 12 10 8 10 11 11 11 11
6 6 6 6 6 7 7 7 7 7 7 8 9 9 9 8 7 6 5 5 5 6 7 7 7 7 6 6 6 6 8 8 7 7 9 12 14 16 15 14 14 14 14 14 13 12 11 10 10 12 12 10 10 7 5 4 2 0 2 3 3 2 2 4 10 14 16 17 16 15 14 14 13 12 11 9 8 9 10 12 11 10 11 13 12 12 12 11
5 5 5 5 6 7 7 7 8 8 9 10 11 11 10 9 8 7 6 5 5 5 5 6 7 8 8 7 7 7 7 6 5 6 7 10 13 15 15 15 15 15 15 15 14 13 10 9 10 12 12 10 11 8 6 3 1 1 1 2 4 3 4 4 8 12 14 15 15 15 13 14 13 13 13 11 10 10 11 12 10 11 14 15 14 13 12 11
6 5 5 5 6 7 7 8 8 9 10 11 11 11 11 10 9 8 6 6 5 4 4 4 5 7 8 7 7 7 6 5 5 5 6 8 11 13 14 15 16 16 16 16 14 12 10 10 11 13 12 12 11 8 6 4 3 3 1 2 3 2 5 7 8 10 12 14 15 15 14 14 14 15 15 14 12 10 11 12 11 13 16 16 14 13 12 12
6 6 5 6 6 7 8 8 9 10 11 11 11 11 10 10 9 8 7 6 5 4 4 4 4 5 6 7 6 6 6 5 5 6 6 8 10 11 12 13 15 16 17 17 15 11 10 11 13 14 13 12 11 7 6 6 5 5 3 0 2 2 4 8 11 12 12 13 15 17 15 15 15 16 16 14 12 10 10 11 13 15 17 17 15 13 12 12
6 6 6 6 7 8 8 9 10 10 11 10 10 10 10 10 9 7 6 5 4 4 3 3 3 4 5 5 4 5 6 6 6 7 8 9 10 11 12 12 14 16 18 18 16 13 13 13 15 16 12 11 10 7 6 7 7 6 4 2 2 4 5 8 12 15 15 13 15 17 16 17 17 18 17 15 13 12 11 11 13 16 18 17 15 13 13 12
6 5 6 7 8 8 8 9 10 10 10 10 10 10 10 9 8 6 6 4 3 3 3 2 2 1 2 3 5 6 8 8 9 9 10 11 12 12 12 12 13 16 17 18 16 15 16 16 17 16 12 9 9 7 5 7 7 5 5 4 5 6 7 8 11 15 16 15 16 18 17 18 18 19 17 16 16 14 12 11 12 16 17 17 16 14 12 11
6 5 6 7 7 8 8 9 9 9 9 10 10 9 9 9 7 6 5 4 3 3 3 3 3 2 2 3 4 6 7 9 10 11 12 12 13 14 14 14 13 15 17 18 17 15 18 19 18 16 12 10 9 8 6 5 6 6 5 6 6 6 8 9 10 14 17 17 18 19 18 18 18 19 19 18 17 14 13 12 12 15 16 17 17 14 11 11
6 5 6 7 7 8 8 9 8 9 9 10 9 9 8 7 6 4 3 3 3 3 4 5 5 5 5 4 3 3 4 6 9 10 11 11 12 13 15 15 14 13 15 18 18 16 18 21 19 15 13 11 9 8 7 5 6 7 5 5 6 6 8 10 11 14 18 18 18 19 18 17 18 19 19 20 18 15 14 12 12 13 13 14 16 14 11 12
6 6 6 6 7 8 8 8 8 9 9 10 9 7 7 7 6 5 5 5 5 4 5 5 5 6 6 5 5 4 2 3 5 8 10 11 12 13 13 14 14 12 13 17 18 16 19 22 20 15 12 11 10 7 7 7 7 7 6 6 7 7 7 8 10 16 18 18 19 19 17 16 19 20 19 20 19 16 15 14 13 13 12 13 14 14 13 13
6 6 6 6 7 8 8 8 8 9 10 9 8 8 8 8 8 8 7 6 5 4 4 5 5 5 5 4 5 5 4 2 2 5 9 12 14 13 11 13 14 12 12 16 19 17 18 22 21 17 13 12 11 9 8 8 8 6 5 6 8 8 7 5 9 16 17 19 20 20 18 15 17 20 20 20 19 18 16 14 13 13 13 12 13 15 13 12
6 6 6 6 7 7 7 7 8 10 10 9 9 9 10 10 10 9 8 7 6 4 4 3 4 4 3 3 4 4 4 2 2 2 5 10 13 13 11 11 13 12 12 16 19 17 18 21 21 18 16 15 14 12 9 5 5 4 4 5 7 8 7 4 9 14 16 18 18 18 18 15 15 18 20 19 19 19 16 15 14 14 14 13 14 16 14 12
6 6 6 6 7 7 6 7 8 10 9 9 9 9 10 11 11 11 11 10 9 8 4 3 4 3 2 2 3 2 2 2 3 2 2 6 9 11 11 10 11 13 14 17 18 18 19 20 22 21 19 19 15 12 10 5 1 1 4 5 6 8 7 5 8 12 16 17 16 17 18 16 15 16 18 20 19 18 17 17 17 16 15 14 14 16 15 13
6 6 6 6 6 6 5 6 8 9 9 9 9 8 8 8 8 10 11 12 12 11 8 5 5 4 3 3 3 2 1 1 2 1 1 4 7 8 9 9 11 13 15 17 17 19 21 22 24 25 20 17 15 11 10 9 5 3 6 7 8 9 8 6 6 11 15 16 16 18 19 18 17 15 17 20 20 20 20 20 19 18 16 14 14 16 16 14
6 6 6 6 5 5 4 5 7 9 9 9 8 8 7 6 6 8 10 11 12 12 10 8 7 5 5 5 5 4 3 1 1 0 1 5 6 5 5 7 10 13 15 17 17 19 22 23 24 23 16 13 14 12 11 11 10 9 10 10 10 9 8 7 5 11 13 14 16 18 18 18 17 15 16 20 21 21 22 22 20 18 15 13 14 16 17 17
6 5 5 5 4 4 3 4 6 8 9 8 8 8 8 7 6 6 6 8 9 10 9 8 7 5 6 6 6 6 5 2 2 2 1 5 6 4 4 5 7 12 16 17 18 20 22 24 23 18 12 12 13 13 12 10 10 10 12 13 11 9 8 7 5 8 12 13 15 17 17 17 16 14 15 18 21 21 22 21 19 16 14 13 13 15 19 21
6 5 5 4 3 3 2 3 4 7 8 8 8 7 7 6 5 5 5 5 5 7 7 7 5 4 4 4 6 7 6 4 4 5 2 3 5 5 4 3 5 11 15 16 17 19 18 18 21 18 13 12 13 13 12 11 10 11 13 13 11 10 10 9 7 5 9 13 13 16 18 17 15 15 17 19 20 22 23 21 18 16 14 12 11 13 18 21
6 5 4 3 2 2 1 2 3 5 6 6 7 7 6 5 5 6 6 5 5 5 4 5 5 5 5 5 6 7 7 6 5 5 4 2 2 4 5 3 5 9 13 15 15 16 13 10 15 19 15 13 13 13 13 12 11 12 13 13 12 13 13 12 11 7 7 14 15 16 18 19 21 19 19 20 21 23 24 23 20 17 15 13 12 13 18 21
6 5 4 2 1 1 2 3 2 3 4 5 6 6 5 5 5 6 5 5 6 6 4 4 4 5 6 7 6 5 5 5 3 4 4 2 1 1 4 4 5 7 12 15 15 14 13 10 9 13 15 15 14 14 14 13 12 13 15 13 11 12 13 13 13 9 5 13 15 17 14 16 25 26 23 23 22 23 25 24 22 19 17 17 15 15 18 22
6 5 3 2 0 1 2 3 3 3 4 5 6 6 4 4 3 5 7 7 6 7 7 6 5 5 6 5 5 4 4 5 2 2 3 0 1 1 2 4 4 6 10 14 15 14 14 15 12 10 11 13 16 17 16 15 13 14 15 15 12 12 12 12 11 7 4 8 11 15 15 11 20 29 28 26 24 24 26 26 24 21 19 19 17 16 18 21
6 5 3 2 1 2 4 4 4 4 4 5 6 5 3 2 2 4 5 4 4 7 8 7 6 6 6 4 4 5 4 4 2 1 2 2 1 0 1 2 2 3 7 11 13 13 15 17 17 15 12 11 14 18 19 18 16 15 16 16 12 10 10 10 9 6 4 6 7 11 18 14 16 26 30 28 27 25 27 28 27 23 21 20 18 18 18 19
5 4 3 2 3 4 5 5 5 3 3 4 5 4 3 2 3 5 3 1 3 4 5 6 5 5 5 3 4 4 3 3 3 1 2 2 1 1 1 1 0 0 3 6 8 9 12 13 14 17 17 14 14 16 19 19 18 18 19 17 12 9 9 10 9 6 5 5 7 10 17 13 12 22 27 28 31 30 28 29 29 26 23 22 21 19 19 17
5 4 3 3 4 5 6 6 5 3 2 3 4 4 3 2 2 4 3 2 3 3 3 3 3 3 3 3 3 2 2 2 3 2 1 1 1 1 1 0 1 1 2 4 7 8 9 9 9 13 15 15 14 13 14 16 17 18 17 15 14 12 10 10 8 6 4 4 7 11 16 11 9 17 25 31 35 35 31 28 29 28 25 24 23 21 20 18
5 4 3 3 5 6 7 7 5 3 1 2 3 5 4 3 2 2 1 2 4 3 3 2 1 1 1 0 1 1 0 0 1 1 2 3 0 1 3 2 4 4 3 4 6 7 8 8 9 12 13 13 13 11 11 12 13 15 12 10 10 11 10 8 6 4 3 4 6 10 16 13 7 11 22 31 33 31 30 29 29 30 28 26 25 23 21 19
5 4 3 4 5 7 8 8 6 3 1 1 3 3 3 4 5 4 1 2 4 4 3 2 2 2 2 2 1 1 1 1 3 2 2 3 3 4 5 5 5 4 4 6 6 6 8 10 11 11 12 13 13 12 11 10 11 12 10 9 7 5 5 5 3 2 2 3 2 3 11 16 12 10 13 21 25 24 27 30 30 30 29 28 27 25 23 20
6 5 4 5 6 7 9 9 6 3 2 1 2 3 2 2 4 4 2 2 3 4 5 3 2 3 4 3 1 1 2 1 3 2 3 3 4 5 5 5 4 4 4 5 6 7 8 10 10 9 11 14 13 13 13 12 11 10 10 11 8 3 2 3 1 2 4 4 2 1 6 14 19 19 14 15 19 20 22 26 27 27 28 29 28 27 25 22
6 5 4 5 6 8 9 9 7 5 3 1 2 3 1 2 3 4 4 3 3 4 5 3 1 4 4 3 2 1 3 2 2 1 2 1 2 2 3 5 5 5 4 3 5 7 6 6 8 10 12 14 15 15 15 12 13 13 13 13 11 4 2 2 1 2 4 4 4 4 5 9 17 17 12 13 15 15 15 19 24 26 27 29 29 27 26 24
6 4 4 5 7 8 9 10 7 6 3 1 2 2 1 3 3 4 4 5 3 2 3 2 1 3 3 2 3 2 3 5 3 2 3 4 2 1 1 5 6 6 4 4 4 4 3 3 5 8 10 12 15 17 16 12 12 15 15 15 15 10 4 2 1 2 2 1 2 5 5 7 8 5 4 6 10 15 16 16 21 25 27 29 29 27 26 25
6 4 4 5 7 8 9 9 8 7 4 1 1 0 3 3 3 4 5 5 2 1 2 2 0 4 3 2 3 2 1 3 4 3 3 3 3 2 3 2 4 5 4 4 2 1 2 1 1 2 5 8 11 15 17 12 10 15 16 15 16 14 9 5 3 2 2 2 3 7 7 9 9 8 8 6 6 14 20 19 21 26 28 31 32 29 27 26
6 4 5 6 7 8 9 9 9 8 5 2 1 1 3 4 4 4 4 4 2 3 1 1 0 3 4 3 4 5 3 2 2 1 0 2 3 3 3 3 2 4 4 4 2 1 2 1 2 3 4 7 8 9 16 15 10 12 15 16 16 15 12 7 3 2 2 3 3 6 9 12 12 10 10 9 8 10 19 22 23 27 28 31 34 32 28 26
5 5 5 6 7 9 10 10 9 9 7 4 2 2 3 4 4 4 3 2 2 2 2 1 1 2 3 3 4 5 6 3 2 2 0 2 2 3 4 2 2 2 3 4 3 1 3 2 1 6 8 5 9 9 14 16 13 11 12 16 17 13 11 9 4 2 2 3 3 6 10 13 10 7 6 7 8 9 16 21 23 27 29 29 32 33 30 27
5 5 6 7 9 10 10 10 9 9 8 5 3 2 3 3 3 2 1 3 2 2 2 2 2 2 2 2 2 4 5 4 2 3 3 2 3 4 4 4 3 1 1 3 3 2 4 3 1 7 12 2 10 13 14 15 15 13 10 12 13 9 8 7 4 3 3 2 2 4 8 9 7 7 7 6 6 7 12 18 22 26 29 29 30 32 32 29
5 5 6 7 9 11 10 10 9 9 8 6 4 4 3 4 2 1 1 3 2 1 2 2 2 2 2 2 1 3 3 4 3 3 3 2 4 2 3 3 4 2 1 3 4 2 4 3 1 7 13 5 7 12 14 14 14 13 9 10 13 10 9 9 7 7 4 2 1 2 4 3 4 7 7 5 5 6 8 12 16 22 28 31 31 31 32 30
5 6 6 7 9 11 11 10 9 9 8 7 6 5 4 4 3 1 2 3 2 1 1 1 2 3 2 1 0 1 3 4 3 2 2 3 3 3 3 2 3 3 2 3 4 3 4 4 3 6 10 5 3 8 12 12 12 13 11 12 15 11 8 10 13 14 8 3 3 2 1 1 5 8 6 4 5 6 5 5 8 13 21 29 32 31 31 31
5 6 6 7 9 11 11 10 10 9 8 8 7 5 4 5 4 3 4 2 1 2 2 1 2 2 1 1 1 1 2 3 3 1 0 4 3 3 3 3 3 1 2 3 3 3 3 4 7 6 7 4 3 7 9 10 12 15 13 12 14 13 10 7 8 10 8 5 4 3 2 3 6 8 7 4 5 6 5 4 4 7 10 20 29 32 31 30
6 7 7 8 9 10 11 10 10 10 9 8 8 6 5 6 5 4 5 4 2 3 3 3 2 1 2 1 1 3 2 3 4 1 1 4 3 3 3 2 3 3 1 2 3 3 3 6 9 6 5 5 3 6 7 9 13 15 13 10 10 13 14 10 6 4 5 6 6 4 4 4 7 9 6 4 5 6 5 7 7 7 9 14 23 30 32 30
8 9 8 8 9 10 11 11 10 11 10 8 8 6 5 6 5 4 6 6 4 4 4 4 3 3 3 3 5 6 4 4 5 3 3 4 3 3 3 3 4 2 1 1 2 4 5 5 6 3 4 5 3 5 6 8 9 10 12 12 9 10 14 14 12 11 10 10 7 5 3 3 6 7 4 2 5 6 6 7 8 10 13 15 20 27 32 32
11 11 10 10 10 10 11 11 10 11 10 9 8 6 5 5 5 4 6 6 5 5 5 6 5 5 5 5 6 5 4 5 5 5 6 6 4 2 3 7 8 5 1 1 1 3 5 5 3 2 1 3 5 4 4 7 8 6 8 12 13 13 13 13 13 15 13 12 10 6 4 3 4 4 2 2 4 6 6 7 8 11 15 19 22 26 30 33
11 13 12 12 12 12 11 12 12 11 10 10 9 7 6 5 5 5 6 6 5 5 5 7 6 4 3 3 3 2 3 5 5 5 6 7 7 6 3 4 8 8 5 3 2 0 3 3 2 3 2 3 4 2 1 5 8 6 7 10 14 15 14 14 14 13 11 14 14 9 6 5 4 3 4 3 4 5 5 4 7 12 16 21 23 26 30 33
10 14 15 14 15 15 15 14 13 13 12 11 10 8 7 6 6 6 7 7 6 6 6 6 6 4 4 4 2 0 3 4 4 4 4 5 7 9 9 6 2 3 4 4 3 2 2 2 2 3 3 4 4 3 2 6 8 9 10 12 14 16 17 18 17 14 13 15 14 12 9 6 5 4 4 4 3 3 2 2 4 8 15 22 24 25 28 32
8 13 15 16 15 16 17 17 16 15 13 12 11 9 7 6 6 6 7 8 7 6 8 8 7 6 6 6 5 2 2 4 4 4 3 4 7 10 11 10 7 6 4 4 3 3 3 0 1 1 1 3 5 4 2 5 5 5 9 13 14 15 18 21 19 16 15 14 11 11 9 7 6 5 5 5 4 4 3 7 9 6 8 18 24 25 27 31
8 11 15 17 16 14 15 17 17 17 15 14 13 11 9 6 4 4 7 9 9 8 9 9 8 7 5 5 6 4 3 4 4 4 3 3 7 10 11 8 6 5 4 5 4 4 6 4 1 1 2 5 6 5 5 4 3 2 5 9 12 13 16 22 22 17 18 17 12 10 9 9 8 7 7 5 5 5 5 9 10 8 0 12 21 23 25 29
10 10 12 17 18 17 16 15 15 15 15 15 14 12 10 6 4 5 7 9 11 10 10 9 8 7 5 5 5 4 3 2 3 4 3 3 7 11 11 8 6 6 4 4 2 3 5 5 2 1 3 5 6 7 7 4 5 6 6 6 9 10 12 21 26 23 20 18 15 12 12 12 10 9 7 6 6 6 5 8 12 11 5 6 16 21 23 26
11 11 11 14 18 20 20 18 17 15 14 15 14 13 11 8 6 6 8 10 11 11 11 10 9 7 6 6 5 4 2 2 4 3 4 5 6 8 9 7 6 6 4 2 1 2 4 4 3 1 3 5 6 7 8 6 10 8 6 7 7 6 7 13 20 21 16 12 13 14 14 14 12 10 8 8 7 6 6 7 11 12 10 5 7 18 24 25
13 12 12 13 16 19 21 22 21 19 16 15 14 13 12 10 9 8 9 10 12 10 9 9 9 8 8 8 8 6 5 4 5 4 5 6 5 4 4 4 3 4 4 2 1 2 4 4 5 3 1 5 5 2 1 5 12 10 4 7 9 4 3 7 12 13 11 10 13 16 15 13 13 11 9 9 8 7 8 8 8 11 13 11 7 10 20 24
13 14 14 13 14 16 19 22 23 23 20 18 16 15 13 12 11 10 9 10 11 10 8 8 9 9 9 10 8 7 7 7 6 5 5 6 4 2 2 1 2 2 2 1 0 1 3 2 7 8 4 6 6 2 3 6 8 6 5 4 8 7 2 4 8 10 12 14 15 17 16 15 14 12 11 10 9 8 8 9 9 9 10 10 10 9 11 15
Wind_Direction
36 40 38 39 38 35 28 13 4 0 356 349 339 325 312 303 295 287 277 270 266 262 257 250 242 235 233 231 230 228 227 227 227 228 229 230 230 231 234 233 233 234 237 239 238 234 227 221 216 220 226 229 240 247 246 231 180 355 7 17 14 9 220 222 216 208 210 210 209 204 193 183 177 172 169 169 155 147 167 174 158 149 153 164 179 186 172 159
25 30 34 37 40 42 39 26 7 357 354 350 344 337 326 318 310 300 290 280 271 267 263 259 253 244 236 229 227 225 223 223 223 225 227 227 226 227 229 228 227 226 229 233 231 226 222 217 210 213 219 223 232 235 233 221 219 356 7 10 5 358 294 232 213 204 204 205 209 208 198 191 189 184 180 181 168 159 167 173 163 156 162 169 179 187 176 162
18 22 26 29 33 36 38 36 23 9 1 354 346 338 328 323 319 313 304 290 278 270 265 262 257 250 242 231 225 220 220 219 220 223 224 224 223 225 225 224 224 220 219 222 220 214 212 206 198 206 214 217 224 227 226 219 234 347 5 10 3 351 324 257 216 201 197 199 207 209 203 197 194 189 187 186 166 161 163 166 161 154 164 173 175 184 177 160
11 16 21 25 29 30 29 29 29 25 12 1 350 340 329 322 317 313 307 298 289 276 269 263 257 252 244 236 227 218 218 219 220 221 222 222 221 222 221 219 220 219 217 219 220 217 215 206 194 198 205 212 218 219 216 206 144 357 2 11 5 353 338 288 214 194 192 196 202 208 207 202 195 186 185 183 158 151 147 148 153 141 147 172 173 179 176 158
4 8 14 19 23 25 25 25 25 23 15 1 350 344 334 324 315 308 301 296 291 283 277 265 256 252 246 239 227 221 219 222 224 222 221 220 218 220 218 215 216 218 216 219 224 225 221 211 202 199 198 206 208 200 202 193 101 10 9 17 15 4 351 314 189 182 187 193 199 206 209 207 200 188 185 182 131 125 145 146 155 145 115 162 172 173 171 159
357 0 5 9 11 13 16 19 19 15 6 356 348 342 335 328 319 309 298 291 285 281 278 270 261 250 245 240 230 224 217 221 227 224 222 219 217 217 214 214 215 216 216 218 223 227 224 215 209 200 194 203 197 181 189 182 109 2 14 21 21 14 1 67 161 172 183 191 198 204 208 211 208 195 187 178 134 129 152 153 158 155 128 146 167 170 169 163
353 354 357 359 359 1 5 7 7 2 357 351 345 341 338 334 327 317 303 292 283 277 273 268 264 255 245 237 230 225 220 225 228 220 220 217 216 214 211 212 213 214 213 215 220 225 224 217 210 197 193 198 184 174 191 172 143 353 5 12 20 24 17 98 148 168 183 192 200 203 208 211 212 203 187 167 140 138 153 159 157 151 138 144 161 169 169 168
350 350 351 350 349 354 358 358 355 352 351 347 343 343 343 341 337 331 319 306 290 278 270 262 259 253 246 237 230 227 225 230 226 215 217 216 215 213 210 210 213 212 209 210 213 217 218 209 205 194 189 191 181 186 200 181 167 292 342 7 40 87 93 109 151 170 182 193 202 205 209 211 210 201 188 168 146 146 151 155 154 147 143 145 157 169 171 172
347 347 346 342 344 350 354 352 348 347 347 345 344 344 344 343 342 339 332 322 306 289 274 261 252 248 244 237 231 229 227 228 220 213 218 217 217 215 211 210 211 208 207 209 209 210 205 194 196 188 183 188 188 195 199 192 200 189 333 44 79 123 155 152 165 176 186 196 204 208 209 209 204 194 190 176 152 153 158 154 149 145 147 148 157 170 174 173
345 345 341 338 343 350 353 351 346 345 345 343 343 343 343 342 341 342 340 333 322 307 289 270 251 244 241 235 231 227 222 219 212 207 212 215 217 218 216 214 213 209 205 206 208 206 190 182 189 181 180 191 193 199 205 218 235 222 278 93 109 147 179 186 187 188 198 207 212 212 211 211 204 195 193 178 156 156 163 161 153 148 151 153 158 170 178 176
343 343 338 338 347 353 355 352 346 344 343 342 343 342 342 341 342 344 344 339 330 319 304 287 261 246 240 233 231 224 215 206 200 203 209 212 215 218 219 218 217 214 208 204 203 197 181 180 183 177 181 194 198 209 222 230 231 235 263 139 136 197 196 200 205 209 214 220 220 215 214 215 207 200 197 184 169 163 161 162 159 155 155 157 162 173 180 180
343 341 335 341 353 357 356 351 345 343 342 343 344 342 341 342 345 346 341 339 336 329 315 303 282 255 242 228 215 204 196 189 191 203 211 212 216 218 218 219 220 219 214 206 200 189 179 178 180 179 181 194 205 219 232 233 227 236 257 280 261 242 230 216 215 221 223 224 220 212 211 216 212 203 197 185 177 170 161 160 161 161 160 160 165 175 183 182
344 340 336 348 358 357 354 350 344 343 343 345 346 343 341 341 345 343 333 335 346 349 349 352 341 283 234 200 192 190 186 185 190 200 208 210 215 219 218 217 218 219 216 209 202 189 178 175 180 183 182 195 209 213 224 232 228 236 250 267 268 252 249 234 223 226 223 220 216 208 208 216 213 204 195 182 175 171 163 157 158 163 165 163 167 176 183 179
344 341 342 355 1 356 352 349 346 346 347 348 347 344 343 345 346 339 329 337 13 25 32 42 43 58 102 152 182 194 192 193 197 199 203 205 209 217 219 217 215 217 216 210 204 195 181 173 177 183 188 201 210 211 216 223 225 234 250 263 262 254 257 253 238 226 217 214 212 208 212 216 210 200 193 182 175 170 163 154 153 163 169 167 169 174 179 177
345 345 352 1 2 356 352 350 350 353 356 355 354 353 356 0 357 357 358 14 48 52 58 65 62 74 91 103 136 176 187 197 209 210 207 207 209 217 221 219 217 217 214 208 203 198 185 177 177 181 191 204 211 213 216 226 227 229 243 259 267 270 273 269 247 222 211 208 207 208 213 214 207 200 193 185 180 174 168 158 151 160 172 174 171 171 177 183
349 353 359 2 1 358 355 356 1 7 10 10 13 18 22 25 30 46 50 46 52 58 75 77 69 81 86 79 91 104 116 180 212 219 216 212 210 216 222 220 219 217 213 207 203 199 191 185 184 186 195 206 212 215 223 237 231 224 235 254 281 295 293 279 233 211 206 203 203 205 211 211 209 208 199 191 187 182 176 170 164 163 172 182 175 171 181 191
355 0 2 2 3 2 2 9 19 24 25 30 42 49 51 53 56 60 53 44 41 52 89 89 75 81 77 66 71 64 55 62 221 226 222 218 214 214 219 218 215 215 212 206 202 200 197 193 192 195 201 205 210 215 222 240 238 235 251 263 290 306 302 281 207 201 201 199 199 204 211 214 213 211 203 197 193 188 182 177 178 174 175 186 182 177 188 197
359 3 4 5 6 7 12 24 34 39 45 57 66 66 67 67 63 62 57 49 44 55 99 106 84 91 88 65 50 33 34 27 333 252 222 223 222 217 218 216 211 211 209 204 201 200 198 197 195 198 203 203 210 213 211 240 250 253 309 299 302 313 305 270 203 202 203 197 195 203 214 215 212 209 202 201 197 192 188 181 183 183 181 190 188 184 191 196
4 5 6 7 9 14 24 36 47 54 63 75 75 70 71 69 67 71 70 65 62 63 84 113 104 119 123 69 24 15 38 12 340 307 210 209 215 215 216 213 207 207 205 202 200 198 196 194 194 200 204 203 209 214 213 220 167 88 356 334 322 323 310 276 219 209 205 197 189 200 218 216 211 212 205 202 197 195 196 188 186 186 187 193 193 190 192 191
7 7 7 9 13 23 34 47 60 68 74 78 75 70 70 72 76 80 78 74 70 69 76 100 113 110 88 64 37 61 91 341 336 333 168 174 191 206 212 209 205 205 204 200 198 198 197 196 198 203 204 203 210 219 226 230 226 293 321 324 327 325 316 299 238 214 208 199 191 201 218 220 216 218 212 204 199 198 199 193 189 186 188 196 195 192 191 187
7 8 7 9 17 32 46 61 75 82 81 79 78 78 79 84 85 81 80 76 74 76 77 88 103 95 76 72 61 77 99 50 23 48 198 181 182 198 209 207 205 203 202 199 197 198 199 202 206 206 204 205 214 226 236 241 251 279 295 301 314 321 325 320 247 217 213 208 205 207 214 217 216 216 212 205 202 200 197 194 191 184 186 197 196 191 187 185
3 5 5 10 21 37 61 76 87 89 83 79 79 78 79 83 80 71 75 79 75 74 73 76 88 85 76 77 73 82 91 77 67 37 280 200 192 209 208 202 205 202 201 198 197 200 201 208 211 207 208 211 216 230 239 245 255 274 285 290 302 315 330 329 278 228 218 214 215 215 213 214 214 210 206 206 205 202 198 196 193 185 185 192 193 188 186 188
357 1 2 9 19 37 73 91 93 91 82 75 74 75 77 78 75 64 71 89 74 65 66 62 66 72 71 82 87 88 86 80 76 53 36 170 193 217 202 201 216 202 200 199 199 201 203 212 214 210 212 214 219 233 241 250 261 271 281 285 287 299 320 322 309 280 230 221 222 220 216 216 218 217 210 207 207 205 200 199 196 190 187 187 193 190 189 194
347 354 355 3 16 28 91 123 100 88 79 71 68 72 74 68 65 58 65 87 69 56 58 50 62 78 82 94 97 91 82 73 70 53 44 102 170 214 200 214 236 210 204 202 201 203 202 207 215 216 219 216 221 234 243 256 265 271 275 272 272 290 311 307 305 314 241 224 226 222 219 218 220 228 226 217 213 211 205 202 198 193 188 191 200 197 192 195
338 344 346 351 9 25 115 139 115 87 82 72 64 64 64 62 62 54 63 81 65 50 46 54 88 96 91 93 91 91 82 70 66 47 41 91 139 245 222 231 243 226 216 210 206 208 207 206 207 217 225 222 224 235 244 254 265 275 269 259 273 301 311 303 303 314 242 223 229 219 217 222 218 225 236 231 222 217 211 205 202 196 189 191 196 194 191 191
331 336 335 326 274 141 128 134 131 112 91 74 64 59 57 60 62 61 68 77 70 57 52 62 90 96 95 99 95 96 84 69 63 15 18 75 176 357 269 241 246 235 226 220 218 218 216 215 209 207 223 228 230 235 241 250 262 275 264 250 275 308 308 305 309 310 242 226 239 219 213 227 221 222 232 235 230 223 215 208 204 199 192 188 186 185 186 187
327 329 321 292 233 171 140 135 138 123 92 69 58 56 58 64 71 72 75 76 68 56 53 61 74 81 89 100 98 91 74 56 42 19 48 76 171 343 335 252 254 244 236 226 224 227 224 224 223 223 230 236 237 236 238 246 256 269 266 254 275 307 304 307 314 311 283 259 270 232 217 229 233 226 228 233 234 227 219 213 206 200 194 186 179 177 178 179
323 322 306 271 222 181 156 145 146 131 91 64 51 52 62 81 76 68 76 75 49 45 48 58 64 74 84 89 89 78 65 55 43 86 107 80 141 237 300 303 345 248 246 229 222 233 233 233 234 233 237 245 246 241 238 244 251 261 265 262 273 301 306 317 321 312 302 265 260 233 215 224 245 232 224 228 233 229 223 216 207 201 195 187 179 173 168 168
318 312 292 254 218 193 173 158 160 144 94 56 44 53 57 93 91 65 74 65 45 46 32 36 58 79 85 83 79 58 57 65 62 105 190 356 88 196 259 0 327 286 267 240 226 237 244 241 235 230 235 242 244 239 233 240 248 256 265 263 267 284 296 315 316 293 288 251 246 235 218 218 254 240 223 220 227 230 227 220 209 201 195 189 181 172 166 163
315 304 278 242 219 202 184 172 175 162 122 41 48 62 55 63 64 41 60 31 29 37 14 2 109 127 232 246 59 24 0 34 20 61 278 305 325 241 249 266 294 283 283 282 252 246 246 241 238 235 233 232 232 233 229 238 249 251 255 252 259 282 291 298 297 277 271 252 258 251 229 222 249 253 228 222 228 232 228 221 213 204 197 192 185 176 170 166
314 297 272 236 218 205 191 184 186 176 182 313 42 58 48 54 47 30 30 24 23 20 3 319 235 214 214 236 273 281 234 300 325 300 277 295 282 281 280 264 263 257 258 272 270 262 248 243 246 243 233 226 226 231 235 247 252 241 234 232 244 276 283 281 275 248 251 252 282 270 229 220 229 252 240 232 237 236 228 222 216 207 200 196 190 181 173 168
314 295 270 238 219 207 197 193 193 187 195 282 0 353 341 47 44 34 35 18 2 358 7 3 258 208 190 221 253 249 237 287 345 287 244 290 286 280 278 254 240 233 229 231 249 275 269 248 243 237 229 226 228 233 235 241 242 224 209 217 227 238 247 250 232 243 257 250 256 251 209 218 238 253 259 250 242 237 231 223 216 211 205 200 196 186 176 170
312 293 271 243 222 210 203 200 197 192 192 246 323 328 350 110 56 33 29 8 348 356 14 34 174 184 181 215 248 302 245 222 23 4 213 249 292 288 253 224 210 214 221 231 266 292 284 233 224 231 230 226 228 231 229 230 228 212 197 206 215 211 234 243 215 267 271 253 250 237 207 234 255 263 264 255 243 235 232 224 217 215 209 206 202 192 181 175
308 288 268 245 226 214 208 205 200 194 200 241 298 316 125 119 55 34 27 12 5 16 20 39 136 179 168 194 232 304 262 233 257 304 261 228 192 58 235 203 196 202 225 257 284 316 306 216 212 230 234 229 228 230 235 245 236 214 203 212 220 217 226 251 224 245 291 330 215 194 199 234 251 263 278 267 242 224 219 218 217 214 208 206 206 201 191 181
303 281 257 240 224 215 211 208 202 199 212 242 297 246 153 128 43 33 24 11 27 56 5 2 121 187 183 198 217 228 273 245 260 285 288 220 172 95 76 153 186 195 216 238 238 344 303 333 102 232 257 247 236 228 228 233 223 206 203 212 223 228 238 257 267 251 278 306 211 196 222 249 252 265 276 279 256 219 209 209 213 213 207 203 204 206 200 189
302 274 245 232 221 215 214 212 206 206 221 241 236 148 143 123 58 39 22 14 50 60 26 297 234 190 209 241 232 230 247 277 313 304 209 172 170 125 100 99 141 171 195 208 173 65 305 338 62 16 323 259 245 228 215 212 204 198 200 211 224 229 229 239 268 264 244 265 240 216 244 267 273 280 272 259 259 227 208 207 209 210 209 206 204 205 205 197
296 269 243 225 216 214 215 216 213 214 226 238 217 163 140 116 67 43 31 42 67 48 34 34 93 187 212 230 229 239 247 256 323 345 278 216 204 151 148 146 132 144 169 181 173 353 338 351 28 0 353 248 214 206 208 215 219 212 208 217 225 224 219 227 248 236 219 260 258 232 254 276 279 283 288 263 253 233 213 210 210 209 210 209 205 203 204 202
289 266 244 223 213 213 215 217 219 221 226 230 211 189 170 137 81 44 80 107 100 40 27 65 110 140 151 160 216 253 249 240 280 339 336 238 190 142 143 160 167 164 138 172 201 306 337 350 307 350 359 341 189 189 201 216 224 224 229 228 220 212 209 212 223 242 238 250 263 245 262 283 282 271 286 281 260 249 227 217 215 214 212 209 205 202 203 203
282 266 249 226 215 214 216 218 223 226 226 222 217 219 204 164 119 56 144 135 121 62 53 89 113 134 139 139 232 265 254 240 242 317 339 215 173 110 91 140 170 201 220 212 219 260 317 328 311 350 359 13 176 188 194 202 213 217 225 221 210 215 223 218 240 274 279 261 284 277 263 292 315 298 292 277 250 243 238 233 229 224 216 210 206 203 202 204
269 263 252 231 221 217 217 220 223 227 228 222 221 228 218 182 156 191 197 167 148 127 99 94 123 143 146 121 115 259 254 237 230 317 336 191 166 85 68 106 158 188 226 227 214 242 300 315 303 333 355 14 191 209 203 201 207 204 198 200 200 204 210 216 243 262 265 266 293 303 286 323 334 325 314 277 228 207 217 253 257 239 219 210 207 204 202 202
258 256 244 230 227 222 219 221 222 224 227 222 215 220 223 203 187 203 213 208 163 171 196 226 166 161 210 193 99 345 269 214 193 29 85 179 152 71 67 65 74 105 224 207 197 235 277 297 297 314 353 354 235 217 208 208 211 201 195 203 200 192 185 192 238 254 249 252 267 286 298 320 331 329 320 280 222 195 183 181 230 252 225 209 207 204 200 200
251 246 237 231 232 226 220 224 225 220 219 215 209 216 229 217 216 223 215 219 228 210 228 241 223 269 269 224 328 340 315 214 191 167 167 172 131 61 53 33 33 32 0 202 219 256 253 272 282 294 352 347 231 198 199 209 213 209 210 218 210 205 210 212 225 263 292 288 276 277 282 294 315 322 321 279 215 199 195 178 183 216 223 216 211 205 202 202
244 240 236 231 230 223 219 224 225 218 215 213 208 217 232 218 222 230 211 217 228 216 233 243 230 256 260 264 298 303 275 226 203 187 191 188 154 81 59 41 29 24 352 245 249 245 240 262 267 262 22 35 123 174 196 194 192 202 219 226 224 228 227 221 231 262 295 299 283 281 276 276 307 313 310 257 203 200 218 207 190 194 203 215 217 209 205 205
241 238 237 230 224 222 223 225 223 220 221 217 208 215 230 222 231 231 204 211 221 214 234 250 246 258 264 272 290 281 231 221 214 197 199 204 191 155 87 56 50 53 71 214 224 225 238 257 249 206 115 90 117 136 186 191 181 186 217 225 230 238 225 218 248 267 274 274 271 275 272 261 289 291 249 191 190 200 220 227 219 211 203 206 215 214 208 206
241 236 236 230 222 221 227 231 230 229 228 221 216 220 220 216 232 227 204 206 218 217 231 242 244 255 258 263 289 273 204 211 209 193 203 221 217 207 203 62 57 52 55 68 56 283 222 222 220 210 188 132 132 130 206 218 215 230 248 236 238 241 223 224 255 261 251 261 263 256 257 253 243 233 209 199 202 208 220 240 244 235 219 209 210 213 210 206
242 233 232 232 227 227 233 240 241 240 235 226 225 225 215 208 216 216 211 217 223 225 227 228 239 248 234 238 277 293 181 199 205 193 195 216 216 220 236 242 264 330 357 35 22 329 197 146 141 194 176 120 126 141 267 256 246 256 255 240 242 244 232 235 249 243 240 257 258 245 243 237 214 197 197 207 211 202 198 14 336 266 234 215 207 208 209 207
258 235 231 232 232 233 239 244 246 246 240 230 229 230 217 207 210 212 218 223 224 230 230 232 251 262 243 238 255 255 181 188 201 194 181 194 205 218 234 244 260 284 311 347 329 280 242 209 60 214 188 71 77 70 337 269 255 264 249 236 239 242 240 242 246 247 249 252 251 246 235 208 191 180 173 185 183 163 103 46 17 331 245 214 205 201 203 205
281 250 237 233 232 232 237 241 243 244 242 234 234 234 222 210 220 231 223 218 216 219 227 236 251 258 242 231 243 249 207 190 201 202 204 212 204 205 216 232 256 273 300 321 301 244 239 246 264 335 38 58 53 32 357 297 273 290 256 237 230 234 246 247 245 257 265 253 245 243 221 192 176 165 161 168 165 151 111 67 41 22 1 198 198 196 197 202
286 272 251 239 235 234 235 237 240 242 241 239 239 236 225 218 242 256 239 223 216 214 224 241 250 246 231 220 231 239 212 207 240 231 225 211 194 201 211 222 237 244 255 286 282 226 239 227 159 67 47 69 64 57 55 21 321 294 270 245 224 227 250 251 243 249 258 250 242 232 204 181 165 156 159 161 150 148 130 88 66 55 64 177 190 189 189 196
282 278 267 251 242 237 237 238 239 241 241 242 243 238 231 232 249 253 241 230 224 222 228 242 249 244 235 230 235 243 241 317 329 291 234 203 185 195 209 218 232 236 225 239 281 273 264 229 162 57 49 94 97 91 91 43 353 325 269 229 203 211 249 243 234 236 238 225 213 202 184 168 160 155 154 152 143 144 145 116 88 77 68 73 173 183 182 185
281 274 272 264 252 242 239 238 238 240 240 242 246 244 239 243 252 251 241 229 227 230 230 236 246 247 243 243 244 249 268 305 324 308 244 211 190 185 199 207 218 216 211 241 304 316 299 256 211 238 32 117 122 112 121 342 344 342 285 210 182 176 268 236 218 222 213 185 177 175 166 157 154 152 151 150 144 141 145 142 123 103 86 69 82 163 177 179
281 271 268 268 262 251 243 240 238 239 240 240 243 244 244 246 249 249 244 227 221 225 224 224 236 242 243 245 245 252 276 288 294 289 255 226 207 186 178 144 115 137 177 213 130 32 337 280 219 235 232 153 152 183 253 300 330 355 345 266 199 168 141 199 199 189 172 163 166 167 160 153 151 151 152 148 143 143 144 150 153 135 112 98 96 116 145 162
Height
3162 3162 3161 3161 3161 3160 3160 3160 3159 3159 3159 3159 3158 3158 3158 3157 3157 3157 3157 3157 3156 3156 3156 3156 3157 3157 3157 3157 3157 3158 3159 3159 3160 3161 3161 3161 3162 3163 3164 3165 3166 3167 3168 3168 3169 3170 3171 3172 3173 3175 3175 3175 3175 3175 3176 3176 3175 3175 3175 3174 3174 3174 3174 3174 3174 3175 3175 3176 3178 3180 3182 3183 3184 3185 3186 3187 3188 3189 3190 3191 3192 3194 3195 3197 3198 3199 3200 3201
3162 3161 3161 3161 3160 3160 3160 3160 3159 3159 3158 3158 3158 3157 3157 3157 3157 3156 3156 3156 3156 3155 3155 3156 3156 3156 3156 3156 3156 3157 3157 3158 3158 3159 3159 3160 3161 3162 3163 3164 3165 3166 3167 3168 3168 3169 3170 3171 3173 3174 3174 3174 3175 3175 3175 3175 3175 3175 3174 3174 3173 3173 3173 3172 3173 3173 3175 3176 3178 3180 3182 3183 3185 3186 3187 3188 3189 3189 3190 3191 3193 3194 3196 3197 3198 3200 3201 3202
3162 3161 3161 3160 3160 3160 3160 3159 3159 3159 3158 3158 3157 3157 3157 3156 3156 3156 3155 3155 3155 3155 3155 3155 3155 3155 3155 3155 3155 3156 3156 3156 3157 3157 3157 3158 3159 3160 3162 3163 3164 3165 3166 3166 3167 3167 3168 3170 3172 3173 3173 3174 3174 3175 3175 3175 3175 3175 3174 3174 3173 3172 3171 3170 3171 3172 3174 3176 3178 3180 3182 3183 3185 3186 3188 3189 3189 3190 3191 3192 3193 3195 3196 3197 3198 3200 3202 3203
3161 3161 3160 3160 3160 3160 3159 3159 3159 3158 3158 3158 3157 3157 3156 3156 3155 3155 3155 3154 3154 3154 3154 3154 3154 3154 3154 3154 3154 3155 3155 3155 3155 3155 3156 3157 3158 3159 3160 3162 3162 3163 3164 3165 3166 3166 3167 3168 3170 3171 3172 3173 3174 3174 3175 3175 3175 3174 3174 3173 3172 3171 3170 3168 3168 3170 3173 3175 3177 3180 3182 3183 3185 3186 3188 3189 3190 3191 3192 3193 3195 3196 3197 3198 3199 3201 3203 3204
3161 3160 3160 3160 3160 3159 3159 3159 3158 3158 3158 3157 3157 3156 3156 3155 3155 3154 3154 3154 3153 3153 3153 3153 3153 3153 3153 3153 3154 3154 3154 3154 3154 3154 3155 3156 3157 3158 3159 3161 3161 3162 3163 3164 3165 3165 3166 3168 3169 3170 3172 3173 3173 3174 3174 3174 3174 3174 3174 3173 3172 3171 3170 3168 3167 3170 3173 3175 3177 3180 3182 3184 3185 3187 3188 3190 3191 3192 3193 3194 3195 3196 3198 3199 3200 3201 3203 3204
3160 3160 3159 3159 3159 3159 3158 3158 3158 3158 3157 3157 3156 3156 3155 3155 3154 3154 3153 3153 3153 3152 3152 3152 3152 3152 3152 3153 3153 3153 3153 3153 3153 3154 3155 3155 3156 3157 3158 3159 3160 3161 3163 3163 3164 3165 3166 3167 3169 3170 3172 3172 3173 3174 3174 3174 3174 3174 3174 3173 3172 3171 3170 3169 3169 3171 3173 3175 3177 3180 3182 3184 3186 3187 3189 3190 3191 3192 3193 3194 3195 3196 3197 3199 3200 3202 3204 3205
3160 3160 3159 3159 3158 3158 3158 3158 3157 3157 3157 3156 3156 3155 3155 3154 3154 3153 3153 3152 3152 3152 3151 3151 3151 3151 3151 3152 3152 3152 3152 3152 3153 3153 3154 3154 3155 3156 3157 3158 3159 3161 3162 3163 3163 3164 3165 3167 3169 3170 3171 3172 3173 3174 3173 3174 3174 3174 3174 3174 3173 3172 3172 3171 3171 3173 3175 3176 3178 3180 3182 3184 3186 3187 3189 3190 3192 3193 3193 3194 3195 3196 3197 3198 3201 3203 3204 3205
3160 3160 3159 3159 3158 3158 3157 3157 3157 3156 3156 3155 3155 3154 3154 3153 3153 3152 3152 3151 3151 3151 3151 3151 3150 3150 3151 3151 3151 3151 3151 3152 3152 3153 3154 3154 3155 3155 3156 3157 3158 3160 3161 3162 3162 3163 3165 3166 3168 3170 3171 3172 3173 3173 3173 3173 3174 3174 3174 3174 3173 3173 3173 3173 3173 3174 3176 3177 3179 3180 3182 3183 3186 3187 3189 3191 3192 3193 3194 3195 3196 3196 3197 3199 3201 3203 3204 3205
3160 3159 3159 3158 3158 3158 3157 3157 3156 3156 3155 3155 3154 3153 3153 3152 3152 3151 3150 3150 3150 3150 3150 3149 3149 3150 3150 3150 3150 3151 3151 3152 3152 3153 3153 3154 3154 3155 3156 3156 3157 3158 3160 3161 3162 3163 3164 3166 3168 3169 3171 3171 3172 3172 3173 3173 3174 3174 3174 3174 3173 3173 3173 3174 3175 3176 3177 3178 3179 3180 3182 3183 3185 3187 3189 3190 3192 3193 3194 3195 3196 3197 3198 3199 3201 3203 3204 3205
3160 3159 3159 3158 3158 3157 3157 3157 3156 3155 3155 3154 3153 3152 3152 3151 3150 3150 3150 3149 3149 3149 3149 3149 3149 3149 3149 3149 3150 3150 3151 3152 3152 3153 3153 3154 3154 3155 3155 3156 3156 3157 3158 3159 3161 3162 3164 3165 3167 3169 3170 3171 3171 3172 3172 3173 3174 3174 3174 3174 3174 3173 3174 3175 3176 3177 3177 3178 3179 3180 3182 3183 3185 3187 3188 3190 3192 3193 3194 3195 3196 3197 3198 3200 3201 3203 3204 3205
3159 3159 3158 3158 3157 3157 3157 3156 3156 3155 3154 3153 3152 3152 3151 3150 3150 3149 3149 3149 3149 3148 3148 3148 3148 3148 3148 3149 3149 3150 3151 3151 3152 3152 3152 3153 3153 3154 3155 3155 3156 3157 3157 3158 3160 3162 3163 3164 3166 3168 3169 3170 3171 3172 3172 3173 3173 3173 3173 3174 3174 3174 3174 3175 3176 3177 3178 3178 3179 3180 3182 3183 3184 3186 3188 3190 3192 3194 3194 3195 3196 3197 3198 3200 3201 3203 3204 3205
3159 3159 3158 3158 3157 3157 3156 3156 3155 3154 3153 3153 3152 3151 3150 3150 3149 3149 3148 3148 3148 3148 3147 3147 3147 3148 3148 3148 3149 3149 3150 3151 3151 3152 3152 3152 3153 3153 3154 3155 3156 3156 3157 3158 3159 3161 3162 3164 3166 3167 3169 3170 3171 3171 3172 3172 3173 3173 3173 3173 3173 3174 3174 3175 3175 3176 3177 3178 3179 3180 3181 3182 3183 3185 3187 3190 3192 3193 3194 3195 3196 3197 3198 3199 3201 3203 3204 3205
3159 3158 3158 3158 3157 3157 3156 3156 3155 3154 3153 3152 3152 3151 3150 3150 3149 3148 3148 3148 3147 3147 3147 3147 3147 3147 3148 3148 3148 3149 3149 3150 3150 3151 3151 3152 3152 3152 3153 3154 3155 3156 3157 3158 3160 3161 3161 3163 3165 3167 3168 3169 3170 3171 3171 3172 3172 3172 3173 3173 3173 3174 3174 3174 3174 3175 3176 3177 3178 3179 3180 3181 3183 3185 3187 3189 3191 3193 3194 3195 3196 3197 3198 3199 3201 3202 3204 3205
3159 3158 3158 3158 3157 3157 3156 3155 3155 3153 3153 3152 3151 3151 3150 3149 3149 3148 3148 3147 3147 3147 3147 3147 3147 3148 3148 3148 3148 3149 3149 3149 3150 3150 3150 3151 3151 3151 3152 3153 3154 3155 3156 3158 3159 3161 3161 3162 3164 3167 3168 3169 3169 3170 3171 3171 3172 3172 3172 3172 3173 3173 3173 3173 3173 3173 3174 3176 3177 3178 3179 3180 3183 3184 3186 3189 3191 3193 3194 3195 3196 3197 3198 3199 3200 3202 3204 3205
3158 3158 3158 3157 3157 3157 3156 3155 3154 3153 3153 3152 3151 3150 3150 3149 3148 3148 3147 3147 3147 3147 3147 3147 3148 3148 3148 3148 3149 3149 3149 3149 3149 3150 3150 3150 3150 3151 3151 3152 3153 3154 3156 3157 3159 3161 3162 3163 3164 3166 3167 3168 3169 3170 3171 3171 3171 3171 3172 3172 3172 3172 3172 3172 3172 3172 3173 3175 3176 3178 3179 3180 3182 3184 3186 3188 3191 3193 3194 3195 3196 3197 3199 3200 3200 3202 3203 3205
3158 3158 3158 3157 3157 3157 3156 3155 3154 3153 3153 3152 3151 3151 3150 3149 3149 3148 3148 3148 3147 3147 3147 3148 3148 3148 3149 3149 3149 3149 3149 3150 3150 3150 3150 3150 3150 3150 3151 3152 3153 3154 3156 3157 3159 3160 3162 3163 3164 3166 3167 3168 3169 3170 3171 3171 3171 3171 3171 3171 3171 3172 3171 3171 3171 3171 3172 3174 3175 3177 3178 3180 3181 3183 3185 3188 3190 3192 3194 3195 3196 3197 3198 3200 3200 3201 3203 3204
3158 3158 3158 3157 3157 3156 3156 3155 3154 3154 3153 3152 3152 3151 3151 3150 3149 3149 3149 3148 3148 3148 3148 3148 3148 3149 3149 3149 3149 3150 3150 3150 3149 3149 3149 3149 3149 3150 3150 3151 3152 3154 3155 3157 3158 3160 3162 3163 3164 3166 3167 3168 3169 3169 3170 3171 3171 3171 3171 3171 3171 3171 3171 3170 3170 3171 3172 3173 3174 3176 3178 3179 3180 3182 3185 3187 3189 3191 3193 3195 3196 3197 3198 3199 3200 3201 3202 3204
3158 3158 3158 3157 3157 3156 3156 3155 3154 3154 3153 3153 3152 3152 3151 3151 3150 3150 3149 3149 3148 3148 3148 3148 3148 3149 3150 3149 3149 3150 3150 3150 3149 3149 3149 3149 3150 3150 3150 3151 3152 3154 3155 3156 3158 3159 3161 3162 3164 3165 3166 3167 3168 3169 3170 3171 3171 3171 3171 3171 3171 3171 3170 3170 3170 3171 3172 3173 3174 3176 3177 3179 3180 3182 3184 3186 3188 3190 3192 3194 3196 3197 3198 3199 3200 3201 3202 3203
3158 3158 3158 3157 3157 3156 3156 3155 3155 3154 3154 3153 3153 3153 3152 3152 3151 3151 3150 3150 3149 3148 3148 3149 3149 3150 3150 3150 3150 3150 3150 3150 3150 3149 3149 3149 3150 3150 3150 3151 3152 3153 3155 3156 3157 3159 3160 3162 3163 3164 3165 3166 3167 3169 3170 3171 3170 3171 3171 3171 3171 3171 3171 3171 3171 3171 3172 3173 3175 3176 3177 3178 3180 3181 3183 3185 3187 3189 3191 3193 3194 3195 3197 3198 3199 3200 3201 3203
3158 3158 3157 3157 3157 3156 3156 3155 3155 3155 3154 3154 3154 3153 3153 3153 3152 3152 3151 3151 3150 3149 3149 3149 3150 3150 3150 3150 3150 3150 3150 3150 3150 3150 3149 3149 3150 3150 3151 3152 3152 3153 3154 3156 3157 3158 3160 3161 3162 3162 3164 3166 3168 3169 3170 3170 3170 3170 3171 3171 3171 3171 3171 3171 3172 3172 3172 3174 3175 3176 3177 3178 3179 3181 3182 3184 3186 3188 3189 3191 3193 3194 3195 3197 3199 3200 3201 3202
3158 3158 3157 3157 3157 3156 3156 3156 3156 3155 3155 3155 3155 3154 3154 3154 3153 3153 3152 3152 3151 3150 3150 3150 3150 3151 3151 3151 3150 3150 3151 3151 3150 3150 3150 3150 3151 3151 3152 3152 3153 3154 3154 3155 3157 3158 3159 3160 3161 3162 3165 3167 3168 3168 3169 3169 3170 3170 3170 3171 3171 3171 3171 3171 3171 3172 3172 3173 3174 3175 3176 3177 3179 3180 3181 3183 3185 3187 3188 3190 3192 3193 3194 3196 3198 3200 3201 3202
3158 3158 3157 3157 3157 3156 3156 3156 3156 3156 3156 3156 3155 3155 3154 3154 3154 3154 3153 3152 3152 3152 3151 3151 3151 3151 3151 3151 3151 3151 3151 3151 3151 3151 3151 3151 3151 3152 3152 3153 3153 3154 3154 3155 3157 3158 3159 3160 3161 3164 3165 3166 3167 3168 3168 3169 3169 3170 3170 3170 3171 3171 3171 3171 3172 3172 3173 3173 3174 3175 3176 3177 3178 3179 3180 3182 3184 3186 3188 3190 3191 3192 3193 3195 3197 3199 3200 3200
3158 3157 3157 3157 3156 3156 3156 3156 3156 3156 3156 3156 3156 3155 3155 3155 3154 3154 3153 3153 3153 3152 3152 3152 3152 3152 3151 3151 3151 3151 3152 3151 3151 3151 3151 3151 3152 3152 3153 3153 3154 3154 3155 3156 3156 3158 3159 3160 3162 3164 3165 3166 3167 3167 3168 3168 3169 3169 3169 3170 3171 3171 3172 3172 3172 3173 3173 3173 3174 3174 3176 3176 3177 3178 3180 3181 3183 3185 3187 3188 3190 3191 3192 3194 3196 3198 3199 3200
3157 3157 3157 3156 3156 3156 3156 3156 3156 3157 3157 3156 3156 3156 3155 3155 3154 3154 3153 3153 3153 3153 3153 3152 3152 3152 3152 3152 3152 3152 3152 3152 3152 3152 3152 3152 3152 3153 3153 3154 3154 3154 3155 3156 3157 3158 3160 3160 3162 3164 3165 3166 3167 3167 3167 3168 3168 3168 3169 3169 3170 3171 3172 3172 3173 3174 3174 3173 3173 3174 3176 3176 3176 3177 3179 3180 3182 3183 3185 3187 3188 3189 3191 3192 3194 3196 3198 3199
3157 3157 3156 3156 3156 3156 3156 3156 3156 3157 3157 3157 3156 3156 3156 3155 3155 3154 3154 3153 3153 3153 3153 3153 3153 3153 3152 3152 3152 3153 3153 3152 3152 3153 3152 3153 3153 3153 3153 3154 3154 3155 3155 3156 3157 3158 3159 3160 3162 3163 3164 3165 3166 3166 3167 3168 3168 3168 3168 3168 3170 3171 3171 3171 3172 3173 3174 3174 3173 3174 3175 3175 3175 3176 3177 3179 3180 3182 3183 3185 3186 3188 3189 3190 3192 3194 3197 3198
3157 3157 3156 3156 3156 3156 3156 3156 3156 3157 3157 3157 3157 3156 3156 3156 3155 3155 3154 3154 3154 3154 3153 3153 3153 3153 3153 3153 3153 3153 3153 3153 3153 3153 3153 3153 3153 3153 3153 3154 3154 3155 3155 3156 3157 3158 3159 3160 3161 3163 3164 3165 3166 3166 3166 3167 3168 3168 3168 3169 3170 3171 3171 3171 3171 3172 3173 3174 3173 3174 3174 3174 3174 3174 3175 3177 3178 3180 3182 3183 3185 3186 3188 3189 3191 3193 3195 3197
3157 3156 3156 3156 3156 3155 3156 3156 3156 3157 3157 3157 3157 3157 3156 3156 3155 3155 3154 3154 3154 3154 3154 3154 3154 3153 3153 3154 3153 3153 3153 3153 3153 3153 3153 3153 3153 3153 3153 3154 3154 3154 3154 3155 3157 3157 3158 3160 3161 3162 3163 3164 3164 3165 3166 3167 3167 3167 3167 3168 3170 3170 3170 3170 3171 3171 3172 3173 3173 3172 3173 3173 3172 3172 3174 3175 3176 3178 3179 3181 3183 3185 3186 3188 3190 3192 3194 3196
3156 3156 3156 3155 3155 3155 3155 3156 3156 3157 3157 3157 3157 3157 3156 3156 3155 3155 3154 3155 3155 3155 3155 3154 3154 3154 3154 3154 3154 3154 3154 3153 3153 3153 3153 3153 3153 3153 3154 3154 3154 3154 3154 3155 3156 3157 3158 3159 3160 3161 3162 3162 3163 3164 3165 3166 3167 3166 3166 3168 3170 3170 3170 3169 3170 3170 3170 3171 3171 3170 3171 3172 3169 3169 3172 3173 3173 3174 3176 3178 3181 3183 3185 3186 3188 3190 3193 3195
3156 3155 3155 3155 3155 3155 3155 3156 3156 3157 3157 3157 3157 3157 3156 3156 3155 3155 3154 3155 3155 3155 3155 3155 3155 3154 3154 3154 3154 3154 3154 3154 3153 3153 3153 3153 3153 3153 3154 3154 3154 3154 3155 3155 3156 3156 3157 3158 3159 3159 3160 3161 3162 3163 3164 3165 3165 3165 3166 3168 3169 3170 3170 3170 3169 3169 3169 3168 3168 3168 3169 3169 3166 3165 3168 3169 3167 3169 3172 3176 3179 3181 3183 3185 3187 3189 3191 3193
3155 3155 3155 3155 3155 3155 3155 3155 3156 3157 3157 3157 3157 3157 3156 3156 3155 3155 3155 3155 3155 3155 3155 3155 3155 3155 3155 3155 3155 3154 3154 3154 3154 3153 3153 3153 3153 3153 3154 3154 3154 3154 3154 3155 3155 3156 3156 3157 3157 3157 3158 3160 3161 3162 3163 3163 3164 3164 3166 3167 3169 3170 3169 3169 3169 3168 3168 3167 3166 3166 3167 3168 3166 3162 3162 3162 3162 3166 3170 3173 3176 3179 3181 3184 3186 3188 3190 3192
3154 3154 3154 3154 3154 3155 3155 3155 3156 3156 3157 3157 3157 3157 3157 3156 3156 3155 3156 3156 3155 3155 3155 3154 3154 3154 3154 3154 3154 3154 3154 3154 3153 3153 3153 3153 3153 3153 3153 3153 3153 3154 3154 3154 3154 3155 3155 3155 3155 3156 3157 3159 3160 3161 3161 3162 3162 3164 3165 3166 3169 3170 3169 3169 3168 3167 3167 3165 3164 3165 3166 3168 3165 3159 3159 3160 3161 3165 3168 3170 3173 3176 3179 3182 3184 3186 3188 3190
3153 3153 3153 3153 3154 3154 3155 3155 3156 3156 3157 3157 3156 3156 3156 3156 3156 3156 3156 3156 3155 3155 3154 3154 3153 3154 3154 3154 3154 3154 3154 3154 3153 3153 3153 3153 3153 3152 3152 3152 3153 3153 3153 3153 3153 3153 3153 3153 3154 3155 3156 3157 3159 3159 3160 3160 3161 3162 3163 3165 3168 3169 3168 3168 3167 3167 3166 3164 3164 3165 3166 3166 3162 3157 3159 3159 3160 3162 3164 3167 3171 3175 3178 3180 3183 3185 3186 3189
3153 3153 3153 3153 3153 3153 3154 3155 3156 3156 3156 3156 3156 3156 3156 3156 3156 3157 3156 3156 3155 3154 3154 3153 3153 3153 3154 3153 3154 3154 3154 3153 3153 3153 3152 3152 3152 3152 3151 3151 3152 3152 3152 3152 3152 3152 3151 3151 3152 3153 3154 3155 3157 3157 3157 3158 3159 3160 3161 3164 3167 3167 3167 3168 3168 3167 3165 3163 3163 3164 3166 3164 3158 3156 3157 3157 3158 3161 3163 3165 3169 3172 3176 3179 3182 3184 3185 3187
3152 3152 3152 3152 3152 3153 3154 3154 3155 3156 3156 3156 3156 3156 3156 3156 3156 3156 3156 3155 3155 3154 3154 3153 3153 3153 3153 3153 3153 3153 3153 3153 3153 3153 3152 3152 3152 3151 3151 3150 3150 3151 3151 3151 3152 3151 3151 3150 3151 3152 3152 3153 3154 3155 3156 3157 3157 3158 3160 3163 3164 3164 3164 3165 3165 3165 3163 3162 3163 3164 3164 3160 3156 3156 3156 3156 3157 3158 3160 3163 3166 3169 3173 3177 3180 3182 3184 3186
3151 3151 3151 3151 3151 3152 3153 3154 3155 3155 3156 3156 3156 3156 3156 3156 3156 3156 3155 3155 3154 3154 3154 3153 3153 3153 3153 3153 3153 3153 3153 3153 3153 3153 3152 3152 3151 3151 3150 3150 3150 3150 3150 3150 3151 3151 3150 3150 3150 3151 3151 3151 3152 3153 3154 3156 3156 3157 3159 3161 3162 3162 3162 3163 3163 3163 3163 3162 3162 3162 3160 3156 3155 3155 3155 3155 3156 3156 3158 3160 3163 3166 3169 3172 3176 3180 3183 3185
3150 3150 3150 3150 3151 3151 3152 3153 3154 3155 3155 3156 3156 3156 3155 3155 3155 3155 3155 3154 3154 3154 3153 3153 3153 3153 3153 3153 3152 3152 3152 3152 3152 3152 3152 3151 3151 3150 3150 3150 3149 3149 3149 3150 3150 3150 3149 3149 3149 3149 3149 3149 3150 3151 3152 3154 3155 3156 3157 3158 3159 3160 3162 3163 3163 3162 3162 3162 3160 3158 3156 3154 3154 3154 3153 3154 3154 3155 3156 3158 3160 3162 3165 3168 3172 3177 3181 3183
3149 3149 3149 3149 3150 3150 3151 3152 3153 3154 3155 3155 3155 3155 3155 3155 3155 3154 3154 3153 3153 3153 3153 3153 3153 3152 3152 3152 3152 3152 3152 3152 3152 3152 3151 3151 3151 3150 3150 3149 3149 3149 3149 3149 3150 3149 3149 3148 3148 3148 3147 3147 3148 3149 3151 3153 3154 3155 3156 3156 3157 3160 3161 3162 3163 3162 3162 3161 3157 3155 3154 3153 3153 3152 3152 3153 3153 3154 3155 3156 3158 3160 3162 3166 3170 3174 3178 3182
3148 3148 3148 3148 3149 3149 3150 3151 3152 3153 3154 3154 3155 3155 3154 3154 3154 3154 3153 3153 3153 3153 3153 3153 3152 3152 3152 3152 3151 3151 3151 3152 3152 3152 3151 3151 3150 3150 3149 3149 3149 3149 3149 3149 3149 3149 3148 3148 3148 3147 3146 3146 3146 3148 3149 3151 3152 3154 3154 3155 3157 3159 3160 3161 3164 3162 3159 3158 3156 3154 3153 3152 3152 3151 3151 3152 3153 3153 3155 3156 3157 3158 3160 3164 3168 3172 3176 3179
3148 3148 3148 3148 3148 3149 3149 3150 3151 3152 3153 3153 3154 3153 3153 3153 3153 3153 3153 3153 3153 3153 3153 3153 3152 3152 3152 3152 3151 3151 3151 3151 3151 3151 3151 3150 3150 3150 3149 3148 3148 3148 3148 3148 3148 3148 3148 3147 3147 3147 3146 3145 3146 3147 3148 3149 3150 3152 3154 3155 3156 3158 3158 3160 3163 3161 3157 3156 3155 3154 3152 3151 3151 3151 3150 3151 3152 3152 3154 3155 3156 3157 3159 3162 3166 3169 3173 3177
3147 3147 3147 3147 3147 3148 3149 3149 3150 3151 3152 3152 3152 3153 3153 3153 3153 3153 3152 3152 3152 3152 3152 3152 3152 3152 3152 3151 3151 3151 3150 3151 3151 3151 3150 3150 3150 3149 3149 3148 3148 3148 3148 3148 3148 3148 3148 3147 3147 3147 3147 3146 3146 3146 3147 3148 3149 3151 3153 3154 3156 3157 3158 3160 3163 3161 3157 3156 3155 3155 3153 3151 3150 3150 3150 3150 3151 3151 3152 3153 3154 3155 3157 3160 3164 3168 3171 3175
3146 3146 3146 3146 3147 3147 3148 3148 3149 3150 3150 3151 3151 3152 3152 3152 3152 3152 3152 3152 3152 3152 3152 3152 3152 3152 3151 3151 3151 3150 3150 3150 3150 3150 3149 3149 3150 3149 3149 3148 3148 3147 3147 3147 3147 3147 3148 3147 3147 3147 3147 3146 3145 3145 3146 3147 3149 3150 3153 3154 3154 3156 3157 3159 3161 3159 3157 3156 3155 3155 3154 3151 3150 3150 3150 3150 3150 3151 3152 3153 3153 3154 3156 3159 3163 3167 3170 3174
3145 3145 3145 3145 3146 3146 3147 3147 3148 3149 3149 3150 3151 3151 3151 3151 3151 3151 3151 3151 3151 3152 3152 3151 3151 3151 3151 3151 3150 3150 3150 3150 3150 3150 3149 3149 3149 3149 3148 3148 3148 3147 3147 3147 3147 3147 3147 3147 3146 3147 3146 3145 3144 3145 3146 3147 3149 3151 3153 3154 3154 3155 3155 3156 3157 3156 3155 3156 3155 3154 3154 3151 3150 3150 3150 3149 3150 3151 3152 3152 3153 3154 3156 3159 3162 3165 3169 3173
3144 3144 3144 3145 3145 3145 3146 3146 3147 3147 3148 3149 3150 3150 3150 3150 3150 3150 3150 3151 3151 3151 3151 3151 3151 3151 3150 3150 3150 3150 3149 3149 3149 3149 3149 3149 3149 3149 3148 3148 3147 3147 3147 3147 3147 3146 3146 3146 3146 3146 3146 3145 3144 3145 3147 3148 3149 3151 3153 3153 3153 3153 3153 3154 3155 3156 3155 3155 3155 3155 3153 3151 3151 3150 3150 3150 3150 3151 3152 3152 3153 3154 3155 3158 3160 3163 3167 3171
3143 3143 3143 3144 3144 3144 3145 3145 3146 3146 3147 3148 3149 3149 3149 3149 3149 3149 3149 3150 3150 3150 3150 3150 3150 3150 3150 3149 3149 3149 3149 3148 3148 3149 3148 3148 3148 3148 3148 3148 3148 3147 3147 3147 3146 3146 3145 3145 3144 3144 3145 3144 3145 3146 3147 3147 3149 3150 3150 3150 3151 3152 3153 3154 3155 3156 3156 3154 3155 3156 3153 3151 3151 3150 3150 3150 3150 3151 3151 3152 3153 3153 3154 3156 3158 3161 3164 3168
3141 3142 3142 3142 3143 3143 3144 3144 3145 3145 3146 3147 3148 3148 3148 3148 3148 3148 3149 3149 3149 3149 3149 3149 3149 3149 3149 3149 3149 3148 3148 3148 3148 3148 3148 3148 3148 3148 3148 3148 3148 3148 3147 3147 3146 3145 3145 3144 3143 3143 3143 3143 3144 3146 3146 3147 3148 3149 3148 3149 3150 3151 3152 3154 3155 3156 3155 3153 3154 3155 3153 3150 3150 3150 3150 3150 3150 3150 3151 3151 3152 3152 3152 3153 3155 3158 3161 3165
3140 3140 3140 3141 3141 3142 3142 3143 3143 3144 3145 3145 3146 3146 3147 3147 3147 3148 3148 3148 3148 3148 3149 3149 3149 3149 3149 3148 3148 3148 3148 3147 3147 3147 3147 3147 3147 3147 3147 3147 3148 3147 3147 3147 3146 3145 3144 3143 3142 3142 3142 3143 3143 3144 3145 3147 3148 3148 3147 3148 3149 3150 3152 3153 3154 3154 3154 3153 3152 3152 3151 3150 3150 3149 3150 3150 3150 3150 3150 3150 3150 3149 3149 3150 3152 3155 3159 3163
3139 3139 3139 3139 3140 3140 3140 3141 3142 3142 3143 3144 3144 3145 3145 3146 3146 3146 3147 3147 3147 3147 3148 3148 3148 3148 3148 3148 3148 3148 3147 3147 3147 3147 3147 3147 3146 3146 3146 3147 3147 3147 3147 3146 3146 3145 3145 3143 3142 3142 3141 3142 3143 3144 3145 3146 3147 3147 3146 3146 3147 3149 3151 3152 3152 3152 3153 3152 3151 3150 3150 3150 3149 3149 3149 3149 3150 3150 3150 3149 3148 3146 3145 3147 3149 3152 3156 3160
3137 3137 3137 3138 3138 3138 3138 3139 3140 3140 3141 3142 3143 3143 3144 3144 3145 3145 3145 3145 3146 3146 3147 3147 3147 3147 3147 3147 3147 3147 3147 3147 3147 3146 3146 3146 3146 3146 3146 3146 3146 3146 3146 3146 3145 3145 3144 3143 3143 3142 3142 3142 3143 3144 3144 3146 3148 3148 3147 3146 3145 3147 3149 3150 3150 3150 3151 3150 3149 3149 3149 3149 3149 3149 3149 3149 3149 3149 3149 3149 3148 3146 3145 3146 3148 3151 3154 3159
3136 3135 3135 3136 3136 3136 3137 3137 3138 3139 3140 3140 3141 3141 3142 3143 3143 3143 3144 3144 3144 3145 3146 3146 3146 3146 3147 3147 3147 3146 3146 3146 3146 3146 3146 3145 3145 3145 3145 3146 3145 3145 3145 3145 3145 3145 3144 3143 3143 3143 3143 3143 3144 3144 3144 3146 3149 3149 3148 3146 3145 3145 3147 3147 3147 3148 3148 3148 3148 3148 3148 3148 3149 3149 3149 3149 3149 3149 3149 3149 3148 3147 3146 3146 3148 3151 3154 3158
3134 3133 3133 3133 3134 3134 3135 3135 3136 3137 3138 3138 3139 3140 3141 3141 3141 3142 3142 3143 3143 3144 3144 3145 3145 3145 3146 3146 3146 3146 3146 3146 3146 3146 3145 3145 3145 3145 3145 3145 3145 3145 3145 3145 3144 3144 3143 3143 3144 3144 3143 3143 3144 3144 3143 3145 3148 3148 3147 3146 3146 3146 3147 3146 3145 3145 3145 3145 3146 3147 3147 3148 3148 3148 3149 3149 3149 3149 3150 3150 3149 3149 3148 3148 3149 3151 3153 3157
3131 3131 3131 3131 3131 3132 3132 3133 3134 3135 3135 3136 3137 3138 3139 3140 3140 3140 3141 3141 3142 3142 3143 3144 3144 3144 3145 3145 3145 3145 3145 3145 3145 3145 3145 3145 3145 3145 3144 3144 3144 3144 3144 3144 3144 3144 3143 3143 3143 3143 3144 3144 3144 3143 3144 3145 3146 3146 3145 3145 3145 3145 3146 3145 3143 3142 3143 3144 3145 3146 3146 3147 3148 3149 3149 3149 3149 3149 3150 3150 3150 3150 3150 3151 3152 3153 3154 3157
3129 3128 3128 3129 3129 3129 3130 3130 3131 3132 3133 3134 3135 3136 3137 3138 3138 3139 3140 3140 3141 3141 3142 3143 3143 3144 3144 3144 3144 3144 3144 3144 3144 3144 3144 3144 3144 3144 3144 3144 3143 3144 3144 3144 3144 3143 3143 3143 3143 3143 3143 3144 3144 3144 3145 3145 3146 3145 3144 3144 3145 3144 3144 3144 3143 3140 3141 3143 3144 3145 3145 3147 3148 3148 3149 3149 3150 3150 3150 3150 3151 3152 3152 3154 3156 3157 3158 3160